Time,TemperatureF,DewpointF,PressureIn,WindDirection,WindDirectionDegrees,WindSpeedMPH,WindSpeedGustMPH,Humidity,HourlyPrecipIn,Conditions,Clouds,dailyrainin,SoftwareType,DateUTC
2013-01-02 00:03:00,6.0,1.0,-100.00,South,171,1.0,4.0,78,-99.99,,,-99.99,,2013-01-02 05:03:00,
2013-01-02 00:12:00,6.0,1.0,-100.00,South,181,1.0,2.0,79,-99.99,,,-99.99,,2013-01-02 05:12:00,
2013-01-02 00:22:00,5.0,1.0,-100.00,South,176,1.0,2.0,80,-99.99,,,-99.99,,2013-01-02 05:22:00,
2013-01-02 00:33:00,5.0,1.0,-100.00,SSE,160,1.0,2.0,81,-99.99,,,-99.99,,2013-01-02 05:33:00,
2013-01-02 00:42:00,5.0,1.0,-100.00,SSE,160,1.0,2.0,81,-99.99,,,-99.99,,2013-01-02 05:42:00,
2013-01-02 00:52:00,5.0,2.0,-100.00,West,272,0.0,2.0,84,-99.99,,,-99.99,,2013-01-02 05:52:00,
2013-01-02 01:02:00,6.0,2.0,-100.00,East,100,0.0,2.0,84,-99.99,,,-99.99,,2013-01-02 06:02:00,
2013-01-02 01:12:00,6.0,2.0,-100.00,NE,52,1.0,4.0,83,-99.99,,,-99.99,,2013-01-02 06:12:00,
2013-01-02 01:22:00,6.0,2.0,-100.00,ESE,111,1.0,4.0,83,-99.99,,,-99.99,,2013-01-02 06:22:00,
2013-01-02 01:32:00,6.0,2.0,-100.00,SSE,152,1.0,4.0,85,-99.99,,,-99.99,,2013-01-02 06:32:00,
2013-01-02 01:42:00,6.0,2.0,-100.00,SSE,164,0.0,2.0,86,-99.99,,,-99.99,,2013-01-02 06:42:00,
2013-01-02 01:52:00,6.0,2.0,-100.00,NNE,13,0.0,2.0,86,-99.99,,,-99.99,,2013-01-02 06:52:00,
2013-01-02 02:02:00,6.0,3.0,-100.00,ESE,102,3.0,6.0,86,-99.99,,,-99.99,,2013-01-02 07:02:00,
2013-01-02 02:12:00,7.0,3.0,-100.00,SSW,209,4.0,8.0,83,-99.99,,,-99.99,,2013-01-02 07:12:00,
2013-01-02 02:22:00,7.0,3.0,-100.00,SSE,148,3.0,10.0,81,-99.99,,,-99.99,,2013-01-02 07:22:00,
2013-01-02 02:32:00,8.0,4.0,-100.00,WNW,287,4.0,8.0,83,-99.99,,,-99.99,,2013-01-02 07:32:00,
2013-01-02 02:42:00,8.0,4.0,-100.00,NNE,17,2.0,8.0,83,-99.99,,,-99.99,,2013-01-02 07:42:00,
2013-01-02 02:52:00,5.0,3.0,-100.00,South,183,2.0,4.0,89,-99.99,,,-99.99,,2013-01-02 07:52:00,
2013-01-02 03:02:00,5.0,3.0,-100.00,South,183,2.0,4.0,89,-99.99,,,-99.99,,2013-01-02 08:02:00,
2013-01-02 03:12:00,5.0,3.0,-100.00,SSE,148,1.0,2.0,90,-99.99,,,-99.99,,2013-01-02 08:12:00,
2013-01-02 03:22:00,5.0,3.0,-100.00,SE,133,1.0,4.0,90,-99.99,,,-99.99,,2013-01-02 08:22:00,
2013-01-02 03:32:00,4.0,2.0,-100.00,SE,141,1.0,4.0,90,-99.99,,,-99.99,,2013-01-02 08:32:00,
2013-01-02 03:42:00,4.0,2.0,-100.00,SE,141,1.0,4.0,90,-99.99,,,-99.99,,2013-01-02 08:42:00,
2013-01-02 03:52:00,4.0,2.0,-100.00,South,172,3.0,4.0,91,-99.99,,,-99.99,,2013-01-02 08:52:00,
2013-01-02 04:02:00,4.0,2.0,-100.00,South,182,2.0,4.0,91,-99.99,,,-99.99,,2013-01-02 09:02:00,
2013-01-02 04:12:00,5.0,3.0,-100.00,SSW,200,2.0,4.0,89,-99.99,,,-99.99,,2013-01-02 09:12:00,
2013-01-02 04:22:00,4.0,2.0,-100.00,NW,323,1.0,4.0,88,-99.99,,,-99.99,,2013-01-02 09:22:00,
2013-01-02 04:32:00,4.0,2.0,-100.00,SSE,154,0.0,2.0,90,-99.99,,,-99.99,,2013-01-02 09:32:00,
2013-01-02 04:43:00,4.0,2.0,-100.00,SSE,154,0.0,2.0,90,-99.99,,,-99.99,,2013-01-02 09:43:00,
2013-01-02 04:52:00,4.0,1.0,-100.00,SW,230,1.0,2.0,89,-99.99,,,-99.99,,2013-01-02 09:52:00,
2013-01-02 05:02:00,4.0,1.0,-100.00,SW,228,0.0,2.0,89,-99.99,,,-99.99,,2013-01-02 10:02:00,
2013-01-02 05:12:00,3.0,1.0,-100.00,ESE,118,0.0,2.0,89,-99.99,,,-99.99,,2013-01-02 10:12:00,
2013-01-02 05:22:00,3.0,0.0,-100.00,SSE,160,1.0,4.0,88,-99.99,,,-99.99,,2013-01-02 10:22:00,
2013-01-02 05:32:00,2.0,0.0,-100.00,West,262,1.0,4.0,89,-99.99,,,-99.99,,2013-01-02 10:32:00,
2013-01-02 05:42:00,2.0,0.0,-100.00,West,262,1.0,4.0,89,-99.99,,,-99.99,,2013-01-02 10:42:00,
2013-01-02 05:52:00,2.0,0.0,-100.00,SSE,160,0.0,2.0,89,-99.99,,,-99.99,,2013-01-02 10:52:00,
2013-01-02 06:02:00,2.0,0.0,-100.00,SSW,197,0.0,0.0,89,-99.99,,,-99.99,,2013-01-02 11:02:00,
2013-01-02 06:12:00,2.0,0.0,-100.00,SSE,154,1.0,2.0,88,-99.99,,,-99.99,,2013-01-02 11:12:00,
2013-01-02 06:22:00,2.0,-1.0,-100.00,South,180,1.0,2.0,88,-99.99,,,-99.99,,2013-01-02 11:22:00,
2013-01-02 06:33:00,2.0,-1.0,-100.00,SW,236,1.0,2.0,88,-99.99,,,-99.99,,2013-01-02 11:33:00,
2013-01-02 06:42:00,2.0,-1.0,-100.00,West,267,0.0,2.0,88,-99.99,,,-99.99,,2013-01-02 11:42:00,
2013-01-02 06:52:00,2.0,-1.0,-100.00,West,267,0.0,2.0,88,-99.99,,,-99.99,,2013-01-02 11:52:00,
2013-01-02 07:03:00,2.0,-1.0,-100.00,North,10,0.0,2.0,88,-99.99,,,-99.99,,2013-01-02 12:03:00,
2013-01-02 07:12:00,2.0,-1.0,-100.00,NW,308,0.0,2.0,88,-99.99,,,-99.99,,2013-01-02 12:12:00,
2013-01-02 07:22:00,2.0,-1.0,-100.00,SE,129,1.0,2.0,88,-99.99,,,-99.99,,2013-01-02 12:22:00,
2013-01-02 07:33:00,2.0,-1.0,-100.00,NNW,328,1.0,2.0,88,-99.99,,,-99.99,,2013-01-02 12:33:00,
2013-01-02 07:43:00,2.0,-1.0,-100.00,NNW,328,1.0,2.0,88,-99.99,,,-99.99,,2013-01-02 12:43:00,
2013-01-02 07:53:00,2.0,0.0,-100.00,NW,325,0.0,2.0,88,-99.99,,,-99.99,,2013-01-02 12:53:00,
2013-01-02 08:03:00,2.0,0.0,-100.00,NE,56,0.0,2.0,88,-99.99,,,-99.99,,2013-01-02 13:03:00,
2013-01-02 08:12:00,2.0,0.0,-100.00,ENE,66,0.0,2.0,88,-99.99,,,-99.99,,2013-01-02 13:12:00,
2013-01-02 08:22:00,3.0,0.0,-100.00,SSE,165,0.0,0.0,88,-99.99,,,-99.99,,2013-01-02 13:22:00,
2013-01-02 08:33:00,3.0,0.0,-100.00,East,85,0.0,2.0,88,-99.99,,,-99.99,,2013-01-02 13:33:00,
2013-01-02 08:43:00,3.0,0.0,-100.00,ESE,120,0.0,2.0,88,-99.99,,,-99.99,,2013-01-02 13:43:00,
2013-01-02 08:52:00,3.0,0.0,-100.00,East,79,0.0,2.0,88,-99.99,,,-99.99,,2013-01-02 13:52:00,
2013-01-02 09:02:00,3.0,0.0,-100.00,East,95,0.0,2.0,88,-99.99,,,-99.99,,2013-01-02 14:02:00,
2013-01-02 09:12:00,3.0,1.0,-100.00,WSW,237,0.0,0.0,88,-99.99,,,-99.99,,2013-01-02 14:12:00,
2013-01-02 09:23:00,4.0,2.0,-100.00,ENE,77,0.0,2.0,88,-99.99,,,-99.99,,2013-01-02 14:23:00,
2013-01-02 09:33:00,4.0,2.0,-100.00,East,79,2.0,4.0,88,-99.99,,,-99.99,,2013-01-02 14:33:00,
2013-01-02 09:43:00,4.0,2.0,-100.00,NE,53,1.0,2.0,88,-99.99,,,-99.99,,2013-01-02 14:43:00,
2013-01-02 09:53:00,5.0,3.0,-100.00,East,79,0.0,2.0,88,-99.99,,,-99.99,,2013-01-02 14:53:00,
2013-01-02 10:03:00,6.0,3.0,-100.00,South,169,0.0,0.0,88,-99.99,,,-99.99,,2013-01-02 15:03:00,
2013-01-02 10:12:00,6.0,4.0,-100.00,WNW,300,0.0,2.0,88,-99.99,,,-99.99,,2013-01-02 15:12:00,
2013-01-02 10:23:00,7.0,5.0,-100.00,East,96,0.0,2.0,87,-99.99,,,-99.99,,2013-01-02 15:23:00,
2013-01-02 10:33:00,8.0,4.0,-100.00,ESE,106,1.0,4.0,84,-99.99,,,-99.99,,2013-01-02 15:33:00,
2013-01-02 10:43:00,8.0,4.0,-100.00,East,94,1.0,2.0,84,-99.99,,,-99.99,,2013-01-02 15:43:00,
2013-01-02 10:53:00,8.0,4.0,-100.00,East,86,1.0,4.0,84,-99.99,,,-99.99,,2013-01-02 15:53:00,
2013-01-02 11:03:00,8.0,4.0,-100.00,SE,125,2.0,4.0,84,-99.99,,,-99.99,,2013-01-02 16:03:00,
2013-01-02 11:13:00,9.0,6.0,-100.00,WSW,243,1.0,6.0,85,-99.99,,,-99.99,,2013-01-02 16:13:00,
2013-01-02 11:22:00,10.0,6.0,-100.00,SE,146,3.0,6.0,84,-99.99,,,-99.99,,2013-01-02 16:22:00,
2013-01-02 11:33:00,10.0,6.0,-100.00,SSE,153,3.0,8.0,83,-99.99,,,-99.99,,2013-01-02 16:33:00,
2013-01-02 11:43:00,11.0,6.0,-100.00,South,177,5.0,10.0,81,-99.99,,,-99.99,,2013-01-02 16:43:00,
2013-01-02 11:53:00,11.0,6.0,-100.00,WSW,254,4.0,10.0,80,-99.99,,,-99.99,,2013-01-02 16:53:00,
2013-01-02 12:03:00,11.0,5.0,-100.00,ESE,121,5.0,13.0,79,-99.99,,,-99.99,,2013-01-02 17:03:00,
2013-01-02 12:13:00,10.0,5.0,-100.00,SSE,153,6.0,11.0,79,-99.99,,,-99.99,,2013-01-02 17:13:00,
2013-01-02 12:23:00,10.0,4.0,-100.00,East,99,7.0,13.0,78,-99.99,,,-99.99,,2013-01-02 17:23:00,
2013-01-02 12:33:00,9.0,4.0,-100.00,NW,311,4.0,13.0,78,-99.99,,,-99.99,,2013-01-02 17:33:00,
2013-01-02 12:43:00,9.0,4.0,-100.00,WSW,247,3.0,10.0,78,-99.99,,,-99.99,,2013-01-02 17:43:00,
2013-01-02 12:53:00,9.0,4.0,-100.00,SSW,205,4.0,13.0,79,-99.99,,,-99.99,,2013-01-02 17:53:00,
2013-01-02 13:03:00,9.0,4.0,-100.00,East,87,4.0,11.0,77,-99.99,,,-99.99,,2013-01-02 18:03:00,
2013-01-02 13:13:00,9.0,4.0,-100.00,WNW,294,7.0,13.0,77,-99.99,,,-99.99,,2013-01-02 18:13:00,
2013-01-02 13:23:00,9.0,3.0,-100.00,NNE,15,9.0,15.0,74,-99.99,,,-99.99,,2013-01-02 18:23:00,
2013-01-02 13:33:00,9.0,2.0,-100.00,West,271,9.0,20.0,73,-99.99,,,-99.99,,2013-01-02 18:33:00,
2013-01-02 13:43:00,8.0,1.0,-100.00,SE,143,8.0,17.0,72,-99.99,,,-99.99,,2013-01-02 18:43:00,
2013-01-02 13:53:00,8.0,1.0,-100.00,WNW,302,6.0,11.0,73,-99.99,,,-99.99,,2013-01-02 18:53:00,
2013-01-02 14:03:00,8.0,0.0,-100.00,North,11,10.0,19.0,70,-99.99,,,-99.99,,2013-01-02 19:03:00,
2013-01-02 14:13:00,8.0,0.0,-100.00,ESE,104,9.0,19.0,70,-99.99,,,-99.99,,2013-01-02 19:13:00,
2013-01-02 14:23:00,7.0,0.0,-100.00,ESE,115,7.0,17.0,72,-99.99,,,-99.99,,2013-01-02 19:23:00,
2013-01-02 14:33:00,7.0,-1.0,-100.00,WNW,300,9.0,15.0,68,-99.99,,,-99.99,,2013-01-02 19:33:00,
2013-01-02 14:43:00,7.0,-1.0,-100.00,WNW,300,9.0,15.0,68,-99.99,,,-99.99,,2013-01-02 19:43:00,
2013-01-02 14:52:00,7.0,-1.0,-100.00,North,9,6.0,11.0,71,-99.99,,,-99.99,,2013-01-02 19:52:00,
2013-01-02 15:03:00,6.0,-2.0,-100.00,SSW,206,5.0,13.0,71,-99.99,,,-99.99,,2013-01-02 20:03:00,
2013-01-02 15:12:00,5.0,-1.0,-100.00,ENE,77,7.0,17.0,72,-99.99,,,-99.99,,2013-01-02 20:12:00,
2013-01-02 15:23:00,5.0,-2.0,-100.00,South,175,5.0,10.0,72,-99.99,,,-99.99,,2013-01-02 20:23:00,
2013-01-02 15:33:00,5.0,-2.0,-100.00,South,175,5.0,10.0,72,-99.99,,,-99.99,,2013-01-02 20:33:00,
2013-01-02 15:42:00,4.0,-3.0,-100.00,SE,144,7.0,11.0,71,-99.99,,,-99.99,,2013-01-02 20:42:00,
2013-01-02 15:53:00,3.0,-3.0,-100.00,WNW,291,5.0,10.0,73,-99.99,,,-99.99,,2013-01-02 20:53:00,
2013-01-02 16:03:00,3.0,-3.0,-100.00,SE,136,7.0,13.0,74,-99.99,,,-99.99,,2013-01-02 21:03:00,
2013-01-02 16:13:00,2.0,-4.0,-100.00,SE,133,5.0,11.0,74,-99.99,,,-99.99,,2013-01-02 21:13:00,
2013-01-02 16:22:00,2.0,-4.0,-100.00,North,1,4.0,10.0,74,-99.99,,,-99.99,,2013-01-02 21:22:00,
2013-01-02 16:33:00,1.0,-5.0,-100.00,ESE,110,7.0,13.0,75,-99.99,,,-99.99,,2013-01-02 21:33:00,
2013-01-02 16:43:00,1.0,-5.0,-100.00,SW,222,8.0,17.0,75,-99.99,,,-99.99,,2013-01-02 21:43:00,
2013-01-02 16:52:00,1.0,-5.0,-100.00,SSE,164,4.0,10.0,76,-99.99,,,-99.99,,2013-01-02 21:52:00,
2013-01-02 17:03:00,0.0,-6.0,-100.00,SSW,197,1.0,4.0,75,-99.99,,,-99.99,,2013-01-02 22:03:00,
2013-01-02 17:12:00,0.0,-6.0,-100.00,North,9,2.0,8.0,76,-99.99,,,-99.99,,2013-01-02 22:12:00,
2013-01-02 17:22:00,-1.0,-6.0,-100.00,ESE,108,1.0,4.0,76,-99.99,,,-99.99,,2013-01-02 22:22:00,
2013-01-02 17:32:00,-1.0,-7.0,-100.00,SE,146,2.0,8.0,76,-99.99,,,-99.99,,2013-01-02 22:32:00,
2013-01-02 17:43:00,-1.0,-7.0,-100.00,WSW,258,2.0,8.0,77,-99.99,,,-99.99,,2013-01-02 22:43:00,
2013-01-02 17:52:00,-2.0,-7.0,-100.00,North,8,3.0,10.0,77,-99.99,,,-99.99,,2013-01-02 22:52:00,
2013-01-02 18:03:00,-2.0,-7.0,-100.00,SSW,197,3.0,10.0,77,-99.99,,,-99.99,,2013-01-02 23:03:00,
2013-01-02 18:13:00,-2.0,-7.0,-100.00,NW,312,3.0,6.0,77,-99.99,,,-99.99,,2013-01-02 23:13:00,
2013-01-02 18:23:00,-2.0,-7.0,-100.00,NW,312,3.0,6.0,77,-99.99,,,-99.99,,2013-01-02 23:23:00,
2013-01-02 18:33:00,-3.0,-8.0,-100.00,SSW,205,2.0,6.0,78,-99.99,,,-99.99,,2013-01-02 23:33:00,
2013-01-02 18:43:00,-3.0,-8.0,-100.00,ESE,120,4.0,8.0,78,-99.99,,,-99.99,,2013-01-02 23:43:00,
2013-01-02 18:52:00,-3.0,-8.0,-100.00,NNE,21,2.0,10.0,78,-99.99,,,-99.99,,2013-01-02 23:52:00,
2013-01-02 19:02:00,-4.0,-8.0,-100.00,South,174,1.0,4.0,79,-99.99,,,-99.99,,2013-01-03 00:02:00,
2013-01-02 19:12:00,-4.0,-8.0,-100.00,WNW,294,1.0,4.0,79,-99.99,,,-99.99,,2013-01-03 00:12:00,
2013-01-02 19:22:00,-4.0,-9.0,-100.00,SE,144,2.0,6.0,79,-99.99,,,-99.99,,2013-01-03 00:22:00,
2013-01-02 19:38:00,-4.0,-9.0,-100.00,SE,138,1.0,6.0,79,-99.99,,,-99.99,,2013-01-03 00:38:00,
2013-01-02 19:52:00,-5.0,-10.0,-100.00,West,280,2.0,4.0,79,-99.99,,,-99.99,,2013-01-03 00:52:00,
2013-01-02 20:02:00,-5.0,-10.0,-100.00,WNW,282,1.0,4.0,77,-99.99,,,-99.99,,2013-01-03 01:02:00,
2013-01-02 20:12:00,-5.0,-10.0,-100.00,South,185,1.0,4.0,77,-99.99,,,-99.99,,2013-01-03 01:12:00,
2013-01-02 20:22:00,-5.0,-11.0,-100.00,SE,138,3.0,8.0,75,-99.99,,,-99.99,,2013-01-03 01:22:00,
2013-01-02 20:32:00,-5.0,-11.0,-100.00,East,99,3.0,10.0,74,-99.99,,,-99.99,,2013-01-03 01:32:00,
2013-01-02 20:42:00,-5.0,-11.0,-100.00,SE,145,2.0,6.0,74,-99.99,,,-99.99,,2013-01-03 01:42:00,
2013-01-02 20:52:00,-5.0,-11.0,-100.00,North,4,3.0,10.0,75,-99.99,,,-99.99,,2013-01-03 01:52:00,
2013-01-02 21:02:00,-5.0,-11.0,-100.00,South,170,3.0,10.0,75,-99.99,,,-99.99,,2013-01-03 02:02:00,
2013-01-02 21:12:00,-6.0,-11.0,-100.00,East,92,2.0,6.0,75,-99.99,,,-99.99,,2013-01-03 02:12:00,
2013-01-02 21:23:00,-6.0,-11.0,-100.00,SSE,165,2.0,8.0,75,-99.99,,,-99.99,,2013-01-03 02:23:00,
2013-01-02 21:33:00,-6.0,-12.0,-100.00,East,96,3.0,8.0,75,-99.99,,,-99.99,,2013-01-03 02:33:00,
2013-01-02 21:43:00,-6.0,-12.0,-100.00,East,96,3.0,8.0,75,-99.99,,,-99.99,,2013-01-03 02:43:00,
2013-01-02 21:52:00,-6.0,-12.0,-100.00,East,96,3.0,8.0,75,-99.99,,,-99.99,,2013-01-03 02:52:00,
2013-01-02 22:02:00,-6.0,-12.0,-100.00,West,278,1.0,4.0,75,-99.99,,,-99.99,,2013-01-03 03:02:00,
2013-01-02 22:12:00,-6.0,-12.0,-100.00,West,260,1.0,4.0,75,-99.99,,,-99.99,,2013-01-03 03:12:00,
2013-01-02 22:22:00,-7.0,-12.0,-100.00,ESE,107,2.0,4.0,76,-99.99,,,-99.99,,2013-01-03 03:22:00,
2013-01-02 22:46:00,-7.0,-12.0,-100.00,West,265,1.0,4.0,76,-99.99,,,-99.99,,2013-01-03 03:46:00,
2013-01-02 22:52:00,-8.0,-13.0,-100.00,WSW,240,0.0,2.0,77,-99.99,,,-99.99,,2013-01-03 03:52:00,
2013-01-02 23:03:00,-8.0,-13.0,-100.00,WSW,240,0.0,2.0,77,-99.99,,,-99.99,,2013-01-03 04:03:00,
2013-01-02 23:12:00,-9.0,-14.0,-100.00,East,95,1.0,2.0,79,-99.99,,,-99.99,,2013-01-03 04:12:00,
2013-01-02 23:22:00,-9.0,-13.0,-100.00,South,173,2.0,2.0,83,-99.99,,,-99.99,,2013-01-03 04:22:00,
2013-01-02 23:32:00,-9.0,-13.0,-100.00,SSE,153,1.0,4.0,81,-99.99,,,-99.99,,2013-01-03 04:32:00,
2013-01-02 23:42:00,-9.0,-13.0,-100.00,WSW,252,1.0,2.0,81,-99.99,,,-99.99,,2013-01-03 04:42:00,
2013-01-02 23:52:00,-9.0,-13.0,-100.00,SW,229,0.0,2.0,80,-99.99,,,-99.99,,2013-01-03 04:52:00,